TimeCDT,TemperatureF,Dew PointF,Humidity,Sea Level PressureIn,VisibilityMPH,Wind Direction,Wind SpeedMPH,Gust SpeedMPH,PrecipitationIn,Events,Conditions,WindDirDegrees,DateUTC
12:53 AM,57.0,46.0,67,30.08,10.0,East,5.8,-,N/A,,Clear,100,2013-09-14 05:53:00
1:53 AM,60.1,45.0,57,30.09,10.0,ESE,6.9,-,N/A,,Clear,120,2013-09-14 06:53:00
2:53 AM,60.1,44.1,55,30.09,10.0,SE,6.9,-,N/A,,Clear,130,2013-09-14 07:53:00
3:53 AM,57.0,44.1,62,30.08,10.0,SE,5.8,-,N/A,,Clear,130,2013-09-14 08:53:00
4:53 AM,57.0,44.1,62,30.09,10.0,SE,5.8,-,N/A,,Clear,130,2013-09-14 09:53:00
5:53 AM,55.0,44.1,67,30.10,10.0,SE,4.6,-,N/A,,Clear,130,2013-09-14 10:53:00
6:53 AM,55.0,45.0,69,30.11,10.0,SE,5.8,-,N/A,,Clear,130,2013-09-14 11:53:00
7:53 AM,55.9,46.0,69,30.12,10.0,ESE,4.6,-,N/A,,Clear,110,2013-09-14 12:53:00
8:53 AM,62.1,45.0,53,30.12,10.0,SE,5.8,-,N/A,,Clear,140,2013-09-14 13:53:00
9:13 AM,62.6,44.6,52,30.13,10.0,SSE,8.1,-,N/A,,Partly Cloudy,150,2013-09-14 14:13:00
9:53 AM,66.0,45.0,47,30.12,10.0,SSE,9.2,-,N/A,,Clear,160,2013-09-14 14:53:00
10:53 AM,69.1,46.9,45,30.12,10.0,SSW,8.1,-,N/A,,Clear,200,2013-09-14 15:53:00
11:53 AM,71.1,48.0,44,30.10,10.0,South,10.4,-,N/A,,Clear,180,2013-09-14 16:53:00
12:53 PM,73.9,48.0,40,30.09,10.0,SSE,9.2,-,N/A,,Clear,150,2013-09-14 17:53:00
1:53 PM,75.0,46.9,37,30.05,10.0,South,5.8,16.1,N/A,,Clear,170,2013-09-14 18:53:00
2:53 PM,77.0,46.9,34,30.03,10.0,South,10.4,-,N/A,,Clear,180,2013-09-14 19:53:00
3:53 PM,75.9,46.0,35,30.01,10.0,South,5.8,-,N/A,,Clear,170,2013-09-14 20:53:00
4:53 PM,78.1,48.0,35,29.99,10.0,South,9.2,-,N/A,,Clear,170,2013-09-14 21:53:00
5:53 PM,75.9,48.0,37,29.98,10.0,SE,8.1,-,N/A,,Clear,140,2013-09-14 22:53:00
6:53 PM,73.0,48.9,42,29.99,10.0,Variable,3.5,-,N/A,,Clear,0,2013-09-14 23:53:00
7:53 PM,71.1,50.0,47,29.98,10.0,South,4.6,-,N/A,,Clear,190,2013-09-15 00:53:00
8:53 PM,71.1,48.9,45,29.97,10.0,South,6.9,-,N/A,,Clear,170,2013-09-15 01:53:00
9:53 PM,70.0,48.9,47,29.96,10.0,South,6.9,-,N/A,,Clear,170,2013-09-15 02:53:00
10:53 PM,69.1,48.9,49,29.96,10.0,South,10.4,-,N/A,,Clear,170,2013-09-15 03:53:00
11:53 PM,69.1,48.9,49,29.97,10.0,South,8.1,-,N/A,,Clear,180,2013-09-15 04:53:00